Wetbulb
74.11 73.97 73.98 74.14 74.65 74.93 74.23 74.37 75.03 75.31 75.17 76.37 77.27 77.39 77.32 77.25 77.28 75.73 75.28 76.50 76.21 76.19 77.24 76.57 77.20 77.62 76.84 75.40 75.48 74.68 73.55 73.89 71.10 72.05 73.72 76.19 76.64 77.20 77.00 77.82 77.77 77.51 76.80
74.48 74.71 74.04 74.39 74.43 73.52 73.55 73.75 74.89 74.68 76.12 77.14 77.28 77.53 77.67 77.23 77.67 77.77 77.37 76.73 76.35 75.41 77.36 76.97 76.67 77.39 76.58 76.70 74.87 75.57 77.28 77.47 75.91 74.14 73.02 73.92 77.04 77.02 77.49 77.68 76.83 76.80 77.44
74.67 74.01 74.03 73.63 73.74 73.66 73.98 75.13 74.23 74.59 75.86 76.56 78.10 78.12 78.66 78.90 78.98 78.94 78.68 78.68 77.53 77.71 77.90 77.48 76.75 75.56 75.81 76.99 74.33 76.24 76.51 75.06 76.01 73.04 72.35 72.63 73.33 75.46 76.70 77.13 77.01 77.45 76.93
74.70 74.68 74.81 74.66 74.78 74.71 74.77 74.60 74.73 75.99 76.44 77.97 78.84 78.99 78.85 78.72 78.84 79.13 79.13 78.45 78.91 78.05 78.30 77.22 76.17 75.94 75.59 75.57 74.47 75.54 74.82 72.71 72.94 72.49 72.41 72.06 71.19 75.51 77.16 75.11 72.62 75.79 75.20
74.99 74.94 75.59 76.39 76.23 76.26 76.04 76.28 76.81 78.21 78.61 79.13 78.00 77.72 77.49 78.22 76.55 76.99 78.92 78.59 78.17 77.37 76.28 76.02 75.58 73.99 69.70 71.12 72.70 73.88 73.98 72.15 72.15 71.60 72.94 73.35 68.92 72.25 74.86 73.63 73.10 73.73 75.30
75.29 75.46 76.37 76.47 76.33 76.40 77.20 77.67 77.65 76.91 76.65 77.02 76.49 76.25 75.93 74.17 65.14 67.37 72.97 78.57 77.73 77.18 76.61 75.77 73.94 69.45 69.66 68.24 68.07 67.96 69.63 72.56 73.35 72.02 69.22 67.49 68.34 70.45 75.11 72.42 72.36 72.04 70.85
75.49 76.34 76.83 77.46 75.79 75.63 76.02 75.85 75.28 75.02 75.18 74.71 74.34 73.94 71.08 68.65 62.84 66.51 72.08 76.91 76.34 76.17 75.85 75.23 74.05 72.61 70.74 73.28 69.59 68.14 67.70 67.50 68.35 72.95 71.78 72.16 71.50 73.01 74.74 75.73 75.69 74.89 74.79
76.42 76.60 76.50 75.77 74.86 74.73 74.56 73.77 73.48 73.26 73.08 71.53 70.76 70.77 69.43 64.53 60.46 62.35 67.37 73.71 73.27 72.65 73.06 72.29 73.54 72.93 67.39 71.38 72.95 73.19 73.75 74.03 73.86 73.70 73.92 74.33 74.75 75.40 75.14 74.11 74.68 74.91 76.71
74.98 74.95 74.88 74.02 72.96 72.22 71.15 70.47 70.58 69.80 68.66 68.50 68.76 68.76 68.07 65.38 58.58 59.62 66.52 71.92 70.74 71.88 70.81 68.47 66.23 64.22 59.91 60.34 72.55 71.73 72.15 73.39 70.23 67.64 67.24 66.52 66.56 66.24 68.29 72.13 71.26 70.83 69.85
72.92 71.75 71.52 70.69 70.03 69.34 69.44 69.57 69.43 69.02 68.28 67.83 67.66 67.37 62.96 66.65 56.91 57.70 62.07 67.74 68.71 69.67 71.20 69.08 59.29 61.51 57.45 57.61 67.79 68.88 69.45 69.01 69.85 70.28 71.56 70.05 68.78 71.60 67.10 72.77 72.64 68.52 68.32
69.83 69.61 69.41 69.69 69.73 69.63 69.08 69.21 68.81 68.29 67.73 67.08 66.45 67.03 66.74 63.19 61.73 56.46 56.83 66.56 66.15 66.16 65.81 66.14 65.34 58.26 56.99 57.10 57.63 66.57 64.74 63.29 66.16 67.14 67.52 69.18 70.41 70.62 70.91 71.95 72.27 70.82 68.69
69.17 68.84 69.14 69.48 68.45 67.82 67.93 67.58 67.48 67.14 66.58 66.31 66.22 65.50 66.14 66.56 57.65 56.27 56.72 57.93 62.20 66.67 66.00 66.22 63.88 56.79 57.04 57.83 63.08 59.45 60.38 63.56 67.70 67.12 66.89 67.09 66.88 67.03 67.44 68.79 69.85 69.74 69.90
68.47 68.26 68.90 68.85 67.85 67.56 66.75 66.34 65.28 66.33 65.11 65.18 64.08 63.82 63.92 64.99 65.64 57.24 56.90 58.73 59.50 65.50 65.60 60.93 59.37 57.63 56.55 59.86 58.53 59.25 62.45 65.39 64.86 64.68 63.81 64.00 64.60 65.16 66.39 67.21 67.91 69.62 70.58
67.64 67.71 67.65 66.79 66.52 66.94 66.21 65.79 64.93 64.49 64.12 64.01 63.58 63.02 62.55 61.12 61.38 63.43 65.42 65.90 60.75 64.83 61.89 64.87 62.36 61.61 59.65 61.89 63.55 62.92 63.37 62.23 61.65 61.63 61.92 63.05 63.70 63.23 62.75 63.44 62.33 62.75 62.31
67.71 67.32 66.77 65.83 66.28 66.02 66.07 64.00 65.33 64.05 60.93 61.74 60.90 60.47 58.52 56.78 55.78 50.53 52.89 60.16 62.03 58.28 60.17 64.15 62.42 61.00 59.65 58.69 58.51 58.27 57.80 57.60 56.61 56.82 56.62 56.59 56.62 57.12 57.54 58.34 58.63 58.80 57.95
66.80 66.78 66.33 65.78 65.57 64.94 64.02 62.94 50.71 50.84 49.71 48.60 48.43 54.83 56.81 50.00 46.57 45.28 43.65 44.06 45.54 48.77 58.05 57.71 57.42 57.31 56.80 57.04 56.84 56.83 57.16 57.17 56.52 56.36 56.05 55.95 55.50 55.82 55.93 56.72 57.31 56.90 56.35
67.06 66.71 66.02 64.72 65.31 64.42 63.77 61.97 58.86 55.23 48.93 46.71 45.31 44.54 45.59 47.44 45.19 43.20 42.99 44.83 48.52 51.98 57.91 57.58 57.40 57.60 57.55 57.79 57.66 57.33 56.41 56.98 58.39 56.35 55.98 55.43 55.27 55.09 54.78 54.99 55.61 55.70 55.46
67.21 58.72 65.63 65.36 65.03 64.75 64.28 62.95 61.48 58.92 57.15 57.11 49.81 52.07 43.63 43.26 42.51 43.20 43.71 46.38 58.65 58.02 58.87 58.64 58.62 59.24 58.97 58.25 58.25 57.65 57.59 57.36 56.35 55.89 55.50 55.06 54.75 54.22 53.94 53.85 54.05 54.32 54.40
65.24 64.41 64.42 64.45 64.65 63.62 64.36 63.18 62.40 61.53 60.03 59.01 58.83 53.50 50.19 44.67 45.69 45.18 47.57 59.26 58.68 58.87 59.42 59.23 59.87 58.88 58.64 58.55 58.34 58.48 58.40 57.72 56.16 55.49 54.87 54.31 53.97 53.63 53.14 53.54 53.60 49.59 50.69
64.07 61.14 62.45 64.46 63.82 64.24 63.60 62.32 61.52 60.60 59.55 59.02 59.11 59.63 59.88 57.52 59.50 60.90 60.90 60.86 58.60 58.59 59.31 59.03 59.58 59.55 59.03 58.95 58.71 58.36 58.25 57.76 56.92 55.44 54.58 54.44 53.97 53.29 52.64 52.66 52.60 52.09 52.69
64.07 64.16 62.48 64.39 64.03 63.84 63.52 62.71 61.04 59.69 58.97 59.31 59.88 57.31 47.07 58.20 60.23 59.41 58.42 58.35 58.45 58.34 58.59 59.04 59.12 59.05 59.18 58.90 58.57 58.13 57.76 57.41 57.07 55.24 54.31 53.68 53.56 52.31 52.74 52.86 52.39 52.25 52.21
63.88 63.80 63.83 63.44 63.35 63.06 63.05 62.19 60.01 59.19 58.68 58.11 58.18 56.20 47.73 58.03 59.53 59.05 59.17 58.37 57.83 57.88 57.87 57.76 57.50 57.71 58.03 58.18 58.22 57.94 57.38 56.80 56.03 55.07 53.98 53.61 53.11 52.37 52.50 52.18 51.58 51.61 51.68
63.37 62.71 62.50 62.68 62.71 58.56 60.21 59.57 58.92 58.75 58.47 58.40 58.74 57.69 57.61 57.73 58.14 58.37 58.59 57.89 57.47 57.13 57.33 56.99 56.36 56.19 57.71 58.46 58.75 58.31 57.10 55.38 55.04 54.55 53.17 52.67 51.89 52.10 51.76 51.02 50.70 50.55 51.19
62.72 61.73 60.89 60.62 60.02 59.07 58.86 58.67 58.99 54.91 59.24 58.20 57.97 57.59 57.91 59.13 59.23 57.74 58.76 58.00 57.37 57.10 56.86 56.15 55.96 55.90 56.49 56.60 57.32 58.04 56.55 55.38 53.13 52.81 52.60 51.51 51.39 50.49 51.04 50.40 50.46 51.36 51.75
61.90 61.09 59.71 58.86 58.34 58.80 58.76 59.07 58.97 58.79 58.56 58.54 58.25 58.47 58.87 59.89 59.68 59.73 58.84 58.46 57.88 56.97 55.89 55.72 56.09 56.49 56.67 56.81 56.49 55.96 38.81 36.11 45.86 38.23 50.35 51.57 50.85 51.13 50.50 50.85 51.48 51.88 52.36
60.48 60.37 59.68 59.64 59.31 59.58 59.19 59.49 59.43 59.41 58.84 58.91 58.90 58.85 59.05 59.88 60.23 59.86 59.24 58.51 57.74 56.98 55.57 55.31 55.36 55.08 55.16 55.37 53.15 40.64 33.54 33.59 42.17 31.73 44.35 49.28 49.97 50.53 51.36 51.83 52.21 52.18 52.35
MSLP
1012.23 1012.55 1013.12 1013.46 1013.93 1014.52 1014.76 1014.97 1015.25 1015.36 1015.57 1015.76 1015.65 1015.59 1015.71 1015.93 1016.18 1016.46 1016.60 1016.40 1016.45 1016.31 1016.18 1016.20 1016.37 1016.49 1016.27 1016.10 1016.14 1016.41 1016.12 1016.21 1015.93 1015.91 1015.45 1015.41 1016.18 1016.16 1015.62 1015.98 1016.37 1016.46 1016.49
1011.26 1012.08 1012.53 1013.19 1013.60 1013.68 1014.14 1014.41 1014.71 1014.94 1015.25 1015.39 1015.42 1015.31 1015.33 1015.50 1015.72 1015.68 1015.68 1015.43 1015.77 1015.91 1015.59 1015.75 1015.76 1015.76 1016.14 1016.15 1015.82 1015.84 1015.91 1016.17 1016.37 1015.92 1015.82 1015.87 1016.20 1015.85 1015.77 1015.78 1015.51 1015.27 1015.46
1010.60 1011.14 1011.74 1012.09 1012.74 1013.08 1013.39 1013.95 1014.16 1014.57 1014.72 1014.80 1014.86 1014.85 1014.80 1014.73 1014.82 1014.74 1014.71 1014.79 1014.79 1014.94 1014.81 1014.91 1015.10 1015.58 1015.53 1015.74 1016.07 1016.01 1016.12 1016.05 1016.04 1016.05 1015.72 1016.08 1016.00 1015.44 1015.39 1015.66 1015.39 1015.17 1014.84
1010.09 1010.66 1011.14 1011.60 1011.98 1012.48 1012.96 1013.63 1013.90 1014.23 1014.44 1014.44 1014.40 1014.44 1014.41 1014.40 1014.20 1014.09 1014.12 1014.36 1014.29 1014.34 1014.26 1014.62 1015.00 1015.26 1015.27 1015.44 1015.51 1015.79 1015.90 1015.85 1015.90 1015.88 1015.50 1015.61 1015.95 1015.15 1014.92 1015.25 1015.42 1014.95 1014.53
1010.39 1010.82 1011.22 1011.66 1012.10 1012.68 1013.06 1013.37 1013.59 1013.71 1013.85 1014.24 1014.33 1014.45 1014.50 1014.23 1014.16 1014.32 1013.75 1013.78 1013.86 1013.97 1014.35 1014.73 1014.88 1015.12 1015.50 1015.80 1015.40 1015.38 1015.43 1015.62 1015.67 1015.85 1015.77 1015.66 1015.81 1015.54 1014.97 1014.17 1014.04 1013.88 1013.84
1010.64 1011.01 1011.43 1011.94 1012.32 1012.65 1012.99 1013.29 1013.64 1013.96 1014.16 1014.41 1014.40 1014.60 1014.76 1014.50 1015.10 1014.77 1014.43 1013.83 1013.91 1014.14 1014.32 1014.74 1015.13 1015.72 1016.02 1016.12 1016.04 1015.95 1016.01 1015.63 1015.57 1015.65 1015.47 1015.58 1015.67 1015.68 1014.91 1014.49 1014.06 1013.42 1012.94
1010.77 1011.38 1011.85 1012.17 1012.73 1013.18 1013.54 1013.87 1014.09 1014.26 1014.59 1014.76 1014.85 1015.02 1015.48 1015.59 1015.47 1015.09 1014.78 1014.26 1014.15 1014.30 1014.41 1014.66 1015.00 1015.38 1015.75 1015.60 1015.64 1015.73 1015.70 1015.65 1015.60 1015.33 1015.28 1015.23 1015.26 1015.13 1015.09 1014.79 1014.62 1014.56 1014.24
1011.11 1011.54 1012.14 1012.57 1013.15 1013.64 1013.98 1014.35 1014.64 1014.76 1015.04 1015.36 1015.51 1015.62 1015.75 1016.20 1016.02 1015.56 1015.17 1014.94 1015.04 1015.18 1015.24 1015.40 1015.35 1015.58 1016.12 1015.79 1015.44 1015.25 1015.01 1015.09 1015.31 1015.31 1015.12 1015.07 1015.20 1015.10 1015.17 1015.19 1014.98 1014.61 1014.36
1011.40 1011.97 1012.34 1012.87 1013.45 1013.97 1014.42 1014.74 1015.00 1015.25 1015.48 1015.68 1015.92 1016.03 1016.08 1016.55 1016.50 1016.02 1015.25 1014.85 1015.36 1015.38 1015.85 1016.14 1016.28 1016.50 1016.61 1016.27 1015.54 1015.27 1015.06 1014.97 1015.16 1015.25 1015.29 1015.31 1015.34 1015.34 1015.34 1015.29 1014.98 1014.80 1014.24
1011.77 1012.29 1012.89 1013.37 1013.68 1014.08 1014.68 1015.06 1015.47 1015.66 1015.62 1015.67 1016.09 1016.30 1016.59 1016.59 1016.93 1016.56 1016.11 1015.18 1015.38 1014.93 1015.45 1016.16 1016.61 1016.81 1016.77 1016.59 1016.13 1015.83 1015.32 1015.29 1015.20 1014.99 1014.85 1014.97 1015.03 1014.39 1014.96 1014.66 1014.31 1014.55 1014.42
1012.25 1012.76 1013.14 1013.54 1014.02 1014.65 1015.20 1015.50 1015.76 1015.93 1016.06 1016.10 1016.32 1016.45 1016.74 1017.30 1017.47 1017.13 1016.71 1016.06 1015.40 1015.23 1015.37 1015.63 1016.81 1017.18 1017.01 1016.88 1016.62 1016.27 1016.16 1016.01 1015.27 1014.92 1014.52 1014.22 1014.09 1014.04 1014.21 1014.23 1014.27 1014.47 1014.18
1012.65 1013.01 1013.43 1013.95 1014.16 1014.96 1015.52 1015.86 1016.06 1016.20 1016.25 1016.27 1016.17 1015.96 1016.63 1017.35 1017.62 1017.63 1017.47 1017.19 1016.68 1016.06 1016.08 1016.77 1017.63 1017.72 1017.49 1017.33 1017.04 1016.93 1016.56 1015.88 1015.29 1014.84 1014.46 1014.21 1014.19 1014.20 1014.34 1014.28 1014.49 1014.45 1014.20
1012.75 1013.24 1013.68 1014.19 1014.76 1015.34 1015.64 1015.95 1016.07 1016.10 1015.96 1015.84 1015.74 1015.97 1016.42 1016.89 1017.28 1017.83 1017.91 1017.72 1017.36 1016.98 1017.22 1017.82 1017.84 1017.69 1017.52 1017.21 1017.40 1017.08 1016.55 1016.30 1016.01 1015.46 1015.62 1015.74 1015.88 1015.64 1015.58 1014.88 1014.69 1014.28 1013.75
1012.79 1013.38 1014.00 1014.50 1015.07 1015.52 1015.60 1015.57 1015.59 1015.82 1015.90 1015.96 1016.12 1016.32 1016.79 1017.30 1017.66 1017.74 1017.57 1017.53 1017.65 1017.18 1017.61 1017.37 1017.53 1017.46 1017.40 1017.26 1017.01 1016.87 1016.79 1016.85 1016.49 1016.10 1015.85 1015.66 1015.55 1015.42 1015.23 1015.25 1015.06 1014.63 1014.16
1012.75 1013.36 1013.88 1014.57 1014.97 1015.40 1015.51 1016.14 1015.86 1016.93 1016.87 1016.64 1016.78 1016.83 1017.32 1018.09 1019.24 1019.67 1019.26 1018.40 1018.08 1018.15 1017.71 1017.08 1016.95 1016.92 1016.99 1017.05 1017.15 1017.25 1017.28 1017.14 1016.96 1016.81 1016.47 1016.21 1016.01 1015.90 1015.59 1015.67 1015.36 1014.97 1014.32
1012.57 1013.15 1013.56 1014.25 1014.97 1015.34 1016.07 1016.78 1017.45 1017.85 1017.98 1018.17 1018.32 1018.36 1019.15 1019.63 1019.92 1019.89 1019.75 1019.49 1019.06 1018.53 1017.72 1017.39 1017.38 1017.45 1017.48 1017.47 1017.39 1017.28 1017.44 1017.65 1017.70 1017.31 1017.05 1016.82 1016.44 1016.12 1015.84 1015.49 1015.16 1015.06 1014.72
1012.34 1012.90 1013.56 1014.02 1014.48 1015.09 1015.74 1016.57 1017.59 1018.89 1019.02 1019.14 1019.34 1019.60 1019.79 1020.21 1020.35 1020.27 1020.08 1019.73 1019.22 1018.69 1017.73 1017.73 1017.70 1017.76 1017.76 1017.75 1017.67 1017.58 1017.66 1018.01 1018.01 1017.62 1017.36 1017.03 1016.73 1016.35 1015.96 1015.42 1014.92 1014.61 1014.45
1012.56 1013.17 1013.51 1013.90 1014.45 1014.93 1015.60 1016.44 1017.19 1017.89 1018.30 1019.11 1019.82 1020.08 1020.23 1020.38 1020.48 1020.36 1020.04 1019.64 1018.54 1018.26 1017.89 1017.84 1017.81 1017.91 1017.93 1017.96 1017.93 1017.79 1017.84 1017.85 1018.00 1017.97 1017.54 1017.22 1016.93 1016.56 1016.10 1015.70 1015.38 1014.89 1014.59
1012.63 1013.09 1013.33 1013.83 1014.29 1014.92 1015.56 1016.19 1016.61 1017.16 1017.52 1017.96 1018.79 1019.70 1019.92 1020.11 1020.22 1020.11 1019.71 1018.70 1018.29 1017.93 1017.84 1017.79 1017.89 1017.76 1017.75 1017.81 1017.90 1017.93 1018.03 1017.72 1018.15 1018.02 1017.56 1017.41 1017.16 1016.85 1016.43 1016.05 1015.54 1015.18 1014.92
1012.28 1013.00 1013.17 1013.76 1014.70 1015.21 1015.58 1015.85 1016.31 1016.81 1017.24 1017.45 1017.60 1017.68 1018.28 1018.96 1018.65 1018.40 1018.45 1018.42 1018.16 1017.79 1017.66 1017.72 1017.71 1017.84 1017.86 1017.86 1017.79 1017.64 1017.37 1017.29 1017.35 1017.63 1017.61 1017.43 1017.13 1016.89 1016.37 1015.99 1015.52 1015.13 1014.64
1012.63 1013.35 1013.39 1013.92 1014.40 1014.89 1015.29 1015.64 1016.12 1016.45 1016.73 1017.03 1017.41 1018.36 1018.86 1018.24 1017.88 1017.94 1018.15 1018.19 1018.14 1018.03 1017.98 1017.88 1017.79 1017.63 1017.54 1017.30 1017.32 1017.07 1016.95 1016.96 1017.00 1017.39 1017.43 1017.31 1017.08 1016.68 1016.43 1015.98 1015.47 1015.05 1014.58
1012.73 1013.25 1013.52 1013.92 1014.43 1014.98 1015.20 1015.68 1016.07 1016.19 1016.50 1016.70 1017.22 1018.58 1018.83 1018.11 1017.70 1017.89 1018.15 1018.17 1018.28 1018.29 1018.15 1018.20 1017.91 1017.59 1017.34 1017.23 1017.11 1016.98 1016.91 1016.87 1017.07 1017.31 1017.45 1017.27 1016.98 1016.66 1016.28 1015.78 1015.32 1014.77 1014.26
1012.59 1012.89 1013.20 1013.69 1014.30 1015.08 1015.58 1015.67 1015.94 1016.19 1016.36 1016.63 1016.88 1017.25 1017.60 1017.63 1017.73 1017.95 1018.18 1018.25 1018.34 1018.25 1018.16 1018.02 1017.79 1017.55 1017.32 1017.28 1017.20 1017.10 1017.10 1017.24 1017.44 1017.66 1017.63 1017.29 1016.96 1016.56 1016.26 1015.71 1015.07 1014.56 1013.95
1012.47 1012.85 1013.22 1013.70 1014.51 1014.96 1015.49 1015.81 1015.98 1016.36 1016.33 1016.67 1016.97 1017.36 1017.63 1017.81 1017.76 1017.97 1018.04 1018.20 1018.19 1018.08 1018.04 1017.98 1017.86 1017.70 1017.58 1017.37 1017.14 1017.23 1017.33 1017.86 1018.35 1018.03 1017.81 1017.60 1017.04 1016.51 1016.08 1015.54 1014.86 1014.12 1013.59
1012.19 1012.75 1013.17 1013.84 1014.43 1014.64 1015.32 1015.64 1015.95 1016.11 1016.21 1016.41 1016.75 1017.20 1017.22 1017.40 1017.58 1017.68 1017.92 1018.14 1018.14 1018.03 1017.92 1017.87 1017.76 1017.84 1017.57 1017.79 1017.77 1017.89 1019.22 1019.31 1019.11 1019.25 1018.29 1017.55 1016.98 1016.46 1015.78 1014.99 1014.29 1013.66 1013.10
1011.83 1012.39 1012.69 1013.39 1013.90 1014.25 1014.89 1015.26 1015.53 1015.76 1015.88 1016.12 1016.48 1016.83 1017.02 1017.11 1017.25 1017.50 1017.68 1017.83 1017.89 1017.80 1017.63 1017.47 1017.60 1017.80 1017.76 1017.46 1018.15 1019.01 1019.20 1019.28 1019.06 1019.29 1018.66 1017.43 1016.52 1015.77 1015.19 1014.68 1014.02 1013.23 1012.49
Wind_Speed
15 14 14 12 13 12 11 11 10 10 7 8 8 8 9 9 11 9 9 8 10 11 11 10 12 11 8 7 8 8 9 7 9 7 7 5 5 7 4 6 8 10 10
13 12 13 12 10 11 11 11 10 9 8 9 9 9 9 10 9 12 11 10 12 12 12 11 12 8 10 9 7 8 7 6 8 11 5 4 6 8 7 7 7 9 10
11 12 12 12 12 12 10 9 8 9 9 9 8 9 9 10 11 12 12 12 13 12 12 11 11 8 10 6 8 6 6 7 8 9 9 7 7 11 8 8 8 9 9
10 10 10 10 9 8 8 8 9 9 9 8 7 6 7 8 10 11 11 11 11 10 9 6 6 9 9 9 7 8 7 6 7 9 10 8 4 11 6 7 5 10 11
9 10 9 7 6 6 6 6 7 7 6 5 4 2 4 4 3 8 8 9 9 6 5 6 5 2 3 5 6 7 7 8 5 4 9 6 4 6 8 8 10 8 10
9 8 7 7 6 6 5 4 4 4 3 3 3 3 3 5 11 9 7 5 4 4 3 2 5 7 8 8 7 8 8 9 8 5 7 4 4 7 10 8 9 9 10
10 9 8 8 8 8 7 7 6 5 4 4 4 5 7 9 13 11 7 3 4 4 4 3 2 4 4 6 10 9 10 10 9 9 8 6 6 8 7 8 8 8 8
12 11 10 10 8 7 7 6 6 5 5 5 5 6 7 10 13 11 9 8 7 6 8 9 6 7 9 6 4 6 6 6 7 7 8 9 9 8 8 8 10 10 8
12 11 10 9 9 7 6 5 5 6 7 6 6 6 7 9 13 14 10 3 4 7 7 9 8 7 8 9 5 4 4 1 3 2 3 6 7 7 6 5 6 5 5
10 10 10 9 8 8 7 6 7 6 7 7 7 7 8 9 14 14 12 4 5 4 5 8 12 7 7 8 6 6 7 7 7 7 5 5 7 6 9 6 5 5 3
11 11 10 10 9 10 9 7 6 6 7 7 7 7 9 9 11 12 14 6 5 3 5 6 9 10 8 6 5 6 7 7 5 6 5 4 4 3 4 3 4 5 7
11 11 11 10 9 9 9 7 7 7 8 7 6 7 7 8 10 11 9 9 10 7 8 8 8 5 13 13 9 9 6 6 6 5 3 3 6 7 8 7 6 6 8
12 12 11 11 9 9 9 8 7 6 6 5 5 5 5 5 6 9 7 6 11 8 7 6 3 1 9 11 10 9 5 5 5 7 7 6 6 7 9 8 9 10 10
14 13 12 11 10 9 8 6 6 5 5 5 4 4 5 5 5 5 4 4 7 4 9 5 4 3 4 3 2 4 6 6 6 6 6 6 6 6 6 5 8 8 9
14 13 13 11 10 9 7 6 6 9 7 4 4 5 5 7 6 6 8 7 6 6 7 3 3 4 4 5 5 6 6 6 7 7 7 7 6 7 6 7 7 8 9
14 11 10 10 10 8 9 9 16 12 12 12 12 9 9 11 6 5 5 5 6 8 1 4 5 5 5 5 5 5 5 6 6 6 6 7 7 8 8 8 6 7 9
12 12 10 9 9 9 9 10 10 7 10 10 10 10 12 9 4 1 3 6 4 8 4 4 4 4 4 4 4 5 6 6 6 6 7 7 8 8 9 9 9 8 7
12 9 10 8 8 8 9 9 9 9 9 8 4 2 6 6 4 3 5 5 4 1 4 3 3 3 3 4 5 5 5 5 7 7 7 8 8 9 10 10 10 11 11
12 10 9 9 9 8 9 9 8 7 6 7 9 6 8 8 8 6 7 5 3 3 3 3 3 4 4 4 5 5 5 5 4 7 8 8 8 9 10 10 10 10 6
11 11 10 10 10 10 9 8 7 6 5 5 4 3 7 7 6 3 2 2 5 5 4 4 3 3 4 5 5 5 6 6 5 6 7 8 8 9 10 11 11 12 12
10 11 10 11 10 9 8 8 7 6 5 4 3 7 7 5 2 2 3 4 4 5 5 6 5 5 5 5 6 7 7 7 5 6 7 8 10 10 10 11 11 12 12
11 11 10 10 9 8 8 7 7 6 5 4 5 6 4 6 2 2 2 3 4 4 5 5 6 7 7 7 7 8 8 8 7 7 8 9 10 11 11 11 12 12 12
11 11 11 10 9 8 7 7 6 5 5 4 3 4 3 3 2 2 2 3 4 5 6 6 7 7 6 6 7 7 7 7 7 7 9 10 10 11 11 12 13 13 12
11 11 10 10 10 10 8 7 6 2 3 4 4 3 3 1 2 4 2 4 5 6 6 6 6 8 7 6 6 4 5 7 7 9 11 11 11 12 12 13 13 14 13
11 11 11 10 10 9 8 7 6 6 5 4 3 2 2 1 0 1 3 4 5 6 7 6 5 7 6 6 5 6 9 6 6 8 9 12 14 16 14 12 13 13 16
12 12 11 10 10 8 8 7 7 6 5 4 4 4 3 2 1 2 3 4 5 7 7 5 5 5 5 6 8 6 2 3 6 3 8 11 12 12 11 14 18 14 16
Wind_Direction
212 216 214 218 219 224 238 242 248 243 234 245 244 238 229 220 225 236 244 240 223 236 243 241 226 238 248 242 215 237 248 237 246 235 259 193 245 251 247 197 219 225 211
210 207 212 216 230 236 231 241 237 236 221 233 241 239 231 231 238 227 230 225 227 235 237 235 237 228 226 247 252 240 257 241 263 256 284 278 258 249 243 242 242 225 228
199 204 210 205 206 218 230 231 235 232 240 248 232 233 234 231 232 233 232 234 240 235 232 226 233 216 239 221 236 241 248 258 239 245 253 240 256 254 216 244 246 254 260
214 204 198 201 201 217 209 214 223 234 239 237 238 246 252 259 255 245 239 235 239 241 241 241 254 226 229 219 236 237 229 241 245 259 255 241 252 262 217 251 225 228 244
195 205 197 191 189 200 218 227 229 223 221 229 224 264 270 270 348 314 260 251 258 251 226 252 254 309 26 290 266 221 254 247 270 253 267 247 253 290 256 245 238 239 239
183 191 167 172 176 187 181 186 162 162 152 163 124 88 39 60 353 340 278 267 252 251 231 225 146 157 199 227 250 277 287 271 248 246 250 237 240 264 278 263 280 280 257
157 146 146 134 132 128 129 124 121 120 114 98 77 74 62 36 9 1 359 318 310 313 313 306 158 169 202 250 213 230 232 240 255 281 268 256 236 249 282 277 260 264 267
142 133 130 126 120 118 119 121 124 120 106 89 77 67 62 46 12 8 338 37 51 45 30 16 340 57 39 347 299 271 286 256 234 241 260 281 291 300 299 291 291 289 278
135 131 126 127 127 127 126 122 123 123 116 102 82 69 68 53 17 7 349 150 58 63 65 51 61 54 11 352 321 316 310 293 125 87 322 300 297 297 284 300 274 282 286
134 129 127 128 126 120 116 112 107 119 111 106 88 73 50 61 30 14 0 53 54 101 129 115 64 31 3 1 354 347 326 34 350 334 301 252 233 259 207 254 291 280 292
136 129 122 118 117 118 117 118 121 102 101 95 93 82 76 30 51 27 11 54 35 70 55 55 48 27 29 21 351 19 354 322 307 292 297 307 320 319 346 351 331 303 292
131 123 120 129 130 123 122 117 113 115 109 107 108 104 90 79 37 55 41 33 347 74 72 74 86 52 67 40 45 358 321 302 360 347 317 357 2 359 1 343 330 317 309
138 132 130 126 120 122 120 123 128 136 129 119 104 90 80 70 93 120 83 45 33 68 73 86 110 110 167 99 65 10 22 40 20 20 12 10 348 352 331 336 335 321 285
140 138 137 134 135 139 151 154 132 127 117 109 104 96 89 67 50 17 80 131 165 151 172 120 75 84 86 78 86 49 39 26 3 6 353 348 334 343 336 341 321 329 312
146 148 150 139 152 154 93 43 92 43 26 90 79 74 93 84 60 15 2 17 17 38 303 60 53 46 50 48 57 43 40 22 17 6 359 354 346 339 341 341 329 325 317
152 157 157 157 160 140 135 101 48 48 48 55 44 68 78 82 92 57 17 355 329 314 95 56 56 49 41 35 32 30 41 27 11 358 353 348 341 334 342 318 324 326 320
160 152 152 158 158 151 141 134 125 82 58 55 67 66 60 106 118 73 313 316 306 301 80 66 51 40 31 22 14 18 12 26 340 352 343 340 337 330 325 326 324 316 313
152 138 156 156 159 157 151 151 147 152 145 138 166 135 124 139 163 241 281 278 217 143 51 48 40 30 9 1 356 354 359 353 356 345 338 341 337 334 327 329 323 325 328
149 159 156 157 160 153 154 161 162 151 147 146 145 193 176 194 202 229 275 304 335 346 23 2 350 345 6 346 355 334 331 344 333 334 340 341 335 326 322 317 318 303 299
149 135 153 152 144 160 160 164 153 156 167 170 174 131 151 193 195 193 202 327 319 322 326 306 310 319 321 324 319 318 305 317 337 331 335 331 330 326 320 320 318 318 311
141 151 145 146 164 162 169 167 160 171 173 166 142 65 36 292 20 20 335 355 336 343 344 329 319 307 289 293 312 308 309 315 322 328 324 329 329 321 318 313 312 309 306
153 153 164 157 157 167 166 155 170 162 157 156 132 123 207 250 27 15 15 349 6 346 344 332 314 317 317 313 309 311 313 310 328 331 322 321 321 319 313 314 312 307 307
157 164 155 151 157 127 159 162 162 165 151 126 107 120 160 62 74 72 31 11 353 338 339 328 324 313 317 311 315 312 319 325 337 335 318 318 315 314 317 307 311 306 304
158 158 154 147 147 166 164 170 154 119 150 124 115 109 103 131 92 99 357 9 348 345 340 335 329 322 327 307 294 305 350 15 343 316 329 317 307 310 312 307 300 302 299
159 161 157 154 159 166 155 176 162 171 178 162 146 168 174 179 338 24 1 347 342 336 340 335 341 339 344 349 338 359 58 39 331 336 299 311 304 303 295 299 303 307 304
162 163 162 162 173 167 171 176 182 183 179 187 193 201 212 236 277 302 312 327 331 336 330 327 321 313 315 305 58 46 25 322 312 307 303 299 297 300 307 311 307 304 303